{"data":{"norad_id":63182,"intl_designator":"2025-047E","name":"SPHEREX (MIDEX 9)","alt_names":[],"object_type":"PAYLOAD","status":"ACTIVE","operator":null,"country":"US","launch_date":"2025-03-12","launch_site_code":"AFWTR","launch_vehicle":null,"mission":null,"orbit_class":"UNKNOWN","rcs_meters":null,"size_class":null,"mass_kg":null,"dimensions":null,"purposes":[],"wikipedia_slug":null,"has_3d_model":false,"image_url":null,"decayed_at":null,"tle_current":{"epoch":"2026-05-25T02:32:50.617824Z","epoch_age_seconds":65960,"freshness":"FRESH","line1":"1 63182U 25047E   26145.10614141  .00000778  00000+0  12586-3 0  9990","line2":"2 63182  97.9579 330.3590 0008937 266.7986  93.2200 14.74012952 64643","mean_motion":14.74012952,"eccentricity":0.0008937,"inclination_deg":97.9579,"raan_deg":330.359,"arg_perigee_deg":266.7986,"mean_anomaly_deg":93.22,"bstar":0.00012586,"rev_number":6464,"period_min":97.692493003277,"perigee_km":642.00675864224,"apogee_km":654.56578760061,"semimajor_km":7026.4232731214,"source":"CELESTRAK","updated_at":"2026-05-25T13:38:03.544591Z"}}}